| time (UTC) | temp F | wind direction | speed MPH | gust MPH | rain 1hr in | rain 24hr in | rain mn in | humidity % | barometer mb |
| 20260503184511 | 70 | 245 | 6.0 | 12.0 | 0.00 | 0.01 | 0.01 | 47 | 1019.3 |
| 20260503183510 | 71 | 0 | 3.0 | 12.0 | 0.00 | 0.01 | 0.01 | 48 | 1019.3 |
| 20260503182508 | 72 | 314 | 5.0 | 9.0 | 0.00 | 0.01 | 0.01 | 47 | 1019.6 |
| 20260503181507 | 71 | 23 | 3.0 | 9.0 | 0.00 | 0.01 | 0.01 | 48 | 1019.6 |
| 20260503180505 | 70 | 293 | 3.0 | 8.0 | 0.00 | 0.01 | 0.01 | 49 | 1019.6 |
| 20260503175504 | 71 | 301 | 2.0 | 8.0 | 0.00 | 0.01 | 0.01 | 50 | 1019.6 |
| 20260503174502 | 70 | 141 | 2.0 | 8.0 | 0.00 | 0.01 | 0.01 | 51 | 1019.6 |
| 20260503173501 | 68 | 31 | 4.0 | 8.0 | 0.00 | 0.02 | 0.01 | 52 | 1020.0 |
| 20260503172459 | 68 | 288 | 4.0 | 7.0 | 0.00 | 0.02 | 0.01 | 51 | 1020.0 |
| 20260503171459 | 69 | 338 | 2.0 | 8.0 | 0.00 | 0.05 | 0.01 | 49 | 1020.0 |
| 20260503170457 | 69 | 13 | 2.0 | 8.0 | 0.00 | 0.07 | 0.01 | 50 | 1020.0 |
| 20260503150309 | 64 | 88 | 3.0 | 11.0 | 0.00 | 0.16 | 0.01 | 58 | 1021.0 |
| 20260503140229 | 62 | 26 | 4.0 | 9.0 | 0.00 | 0.24 | 0.01 | 62 | 1020.7 |
| 20260503131221 | 58 | 2 | 2.0 | 8.0 | 0.00 | 0.28 | 0.01 | 86 | 1020.3 |
| 20260503130219 | 56 | 335 | 3.0 | 8.0 | 0.00 | 0.30 | 0.01 | 88 | 1020.3 |
| 20260503120212 | 50 | 327 | 2.0 | 5.0 | 0.00 | 0.43 | 0.01 | 95 | 1020.0 |
| 20260503080836 | 49 | 16 | 0.0 | 0.0 | 0.00 | 0.66 | 0.00 | 92 | 1017.6 |
| 20260503072759 | 50 | 152 | 0.0 | 1.0 | 0.00 | 0.71 | 0.00 | 91 | 1017.3 |
| 20260503071727 | 50 | 167 | 1.0 | 2.0 | 0.00 | 0.73 | 0.00 | 91 | 1016.9 |
| 20260503070726 | 50 | 183 | 1.0 | 2.0 | 0.00 | 0.74 | 0.00 | 91 | 1016.9 |
| 20260503054613 | 52 | 138 | 1.0 | 1.0 | 0.00 | 0.83 | 0.00 | 92 | 1016.9 |
| 20260503053612 | 52 | 135 | 0.0 | 2.0 | 0.00 | 0.83 | 0.00 | 91 | 1016.9 |
| 20260503052611 | 52 | 146 | 0.0 | 2.0 | 0.00 | 0.83 | 0.00 | 91 | 1016.9 |
| 20260503051609 | 52 | 160 | 1.0 | 2.0 | 0.00 | 0.83 | 0.00 | 91 | 1016.9 |
| 20260503050609 | 52 | 143 | 0.0 | 3.0 | 0.00 | 0.83 | 0.00 | 91 | 1016.9 |
| 20260503045607 | 52 | 140 | 1.0 | 2.0 | 0.00 | 0.83 | 0.00 | 91 | 1016.9 |
| 20260503044534 | 52 | 180 | 1.0 | 3.0 | 0.00 | 0.83 | 0.00 | 91 | 1016.6 |
| 20260503043532 | 52 | 221 | 2.0 | 3.0 | 0.00 | 0.83 | 0.00 | 91 | 1016.6 |
| 20260503042532 | 52 | 264 | 1.0 | 3.0 | 0.00 | 0.83 | 0.00 | 91 | 1016.6 |
| 20260503041531 | 52 | 293 | 1.0 | 4.0 | 0.00 | 0.83 | 0.00 | 91 | 1016.6 |
| 20260503040530 | 52 | 313 | 2.0 | 4.0 | 0.00 | 0.83 | 0.00 | 91 | 1016.6 |
| 20260503035528 | 52 | 309 | 2.0 | 3.0 | 0.00 | 0.83 | 0.83 | 91 | 1016.6 |
| 20260503034527 | 52 | 319 | 2.0 | 3.0 | 0.00 | 0.83 | 0.83 | 91 | 1016.3 |
| 20260503033526 | 52 | 301 | 1.0 | 3.0 | 0.00 | 0.83 | 0.83 | 91 | 1016.3 |
| 20260503032525 | 52 | 269 | 0.0 | 2.0 | 0.00 | 0.83 | 0.83 | 91 | 1015.9 |
| 20260503031524 | 52 | 283 | 1.0 | 2.0 | 0.00 | 0.83 | 0.83 | 91 | 1015.9 |
| 20260503030522 | 52 | 295 | 1.0 | 3.0 | 0.00 | 0.83 | 0.83 | 91 | 1015.9 |
| 20260503025521 | 52 | 281 | 1.0 | 3.0 | 0.00 | 0.83 | 0.83 | 90 | 1015.6 |
| 20260503024520 | 52 | 201 | 1.0 | 2.0 | 0.00 | 0.83 | 0.83 | 90 | 1015.6 |
| 20260503023518 | 52 | 199 | 1.0 | 2.0 | 0.00 | 0.83 | 0.83 | 90 | 1015.6 |
| 20260503022445 | 52 | 186 | 1.0 | 2.0 | 0.00 | 0.83 | 0.83 | 90 | 1015.6 |
| 20260503021444 | 52 | 191 | 1.0 | 2.0 | 0.00 | 0.83 | 0.83 | 89 | 1015.2 |
| 20260503020443 | 52 | 194 | 1.0 | 2.0 | 0.00 | 0.83 | 0.83 | 89 | 1015.2 |
| 20260503015441 | 53 | 194 | 1.0 | 2.0 | 0.00 | 0.83 | 0.83 | 89 | 1014.9 |
| 20260503014440 | 53 | 175 | 1.0 | 3.0 | 0.00 | 0.83 | 0.83 | 88 | 1014.9 |
| 20260503013438 | 53 | 187 | 1.0 | 3.0 | 0.00 | 0.83 | 0.83 | 88 | 1014.6 |
| 20260503012437 | 53 | 174 | 2.0 | 3.0 | 0.00 | 0.83 | 0.83 | 88 | 1014.6 |
| 20260503011437 | 54 | 184 | 0.0 | 2.0 | 0.00 | 0.83 | 0.83 | 88 | 1014.6 |
| 20260503010435 | 54 | 216 | 1.0 | 2.0 | 0.00 | 0.83 | 0.83 | 87 | 1014.6 |
| 20260503005434 | 54 | 298 | 1.0 | 2.0 | 0.00 | 0.83 | 0.83 | 86 | 1014.2 |
| 20260503004433 | 55 | 305 | 1.0 | 3.0 | 0.00 | 0.83 | 0.83 | 86 | 1014.2 |
| 20260503003431 | 55 | 304 | 2.0 | 4.0 | 0.00 | 0.83 | 0.83 | 85 | 1014.2 |
| 20260503002429 | 55 | 300 | 3.0 | 4.0 | 0.00 | 0.83 | 0.83 | 85 | 1013.9 |
| 20260503001429 | 56 | 344 | 2.0 | 5.0 | 0.00 | 0.83 | 0.83 | 84 | 1013.5 |
| 20260503000429 | 56 | 75 | 2.0 | 8.0 | 0.00 | 0.83 | 0.83 | 83 | 1013.2 |
| 20260502235425 | 56 | 58 | 4.0 | 8.0 | 0.00 | 0.83 | 0.83 | 83 | 1013.2 |
| 20260502234424 | 57 | 88 | 3.0 | 6.0 | 0.00 | 0.83 | 0.83 | 83 | 1012.9 |
| 20260502233422 | 57 | 62 | 2.0 | 6.0 | 0.00 | 0.83 | 0.83 | 84 | 1012.9 |
| 20260502232420 | 56 | 49 | 1.0 | 7.0 | 0.00 | 0.83 | 0.83 | 85 | 1013.2 |
| 20260502231348 | 56 | 34 | 2.0 | 7.0 | 0.00 | 0.83 | 0.83 | 84 | 1012.9 |
| 20260502230346 | 56 | 20 | 3.0 | 10.0 | 0.00 | 0.83 | 0.83 | 84 | 1012.9 |
| 20260502225345 | 56 | 43 | 3.0 | 10.0 | 0.00 | 0.83 | 0.83 | 84 | 1012.9 |
| 20260502224345 | 56 | 45 | 3.0 | 9.0 | 0.00 | 0.83 | 0.83 | 84 | 1012.9 |
| 20260502223344 | 56 | 54 | 3.0 | 10.0 | 0.00 | 0.83 | 0.83 | 84 | 1012.9 |
| 20260502222342 | 56 | 51 | 4.0 | 10.0 | 0.00 | 0.83 | 0.83 | 84 | 1012.5 |
| 20260502221310 | 56 | 51 | 3.0 | 9.0 | 0.00 | 0.83 | 0.83 | 85 | 1012.5 |
| 20260502220308 | 56 | 55 | 3.0 | 13.0 | 0.00 | 0.83 | 0.83 | 86 | 1012.9 |
| 20260502215235 | 56 | 19 | 4.0 | 13.0 | 0.00 | 0.83 | 0.83 | 86 | 1012.5 |
| 20260502214235 | 56 | 352 | 6.0 | 12.0 | 0.00 | 0.83 | 0.83 | 87 | 1012.5 |
| 20260502213233 | 56 | 326 | 5.0 | 11.0 | 0.00 | 0.83 | 0.83 | 87 | 1012.5 |
| 20260502212200 | 57 | 31 | 6.0 | 10.0 | 0.00 | 0.83 | 0.83 | 87 | 1012.2 |
| 20260502211159 | 56 | 34 | 2.0 | 13.0 | 0.00 | 0.83 | 0.83 | 88 | 1012.2 |
| 20260502210158 | 56 | 46 | 2.0 | 13.0 | 0.00 | 0.83 | 0.83 | 87 | 1012.2 |
| 20260502205157 | 56 | 30 | 4.0 | 10.0 | 0.00 | 0.83 | 0.83 | 89 | 1012.2 |
| 20260502204156 | 56 | 29 | 4.0 | 12.0 | 0.00 | 0.83 | 0.83 | 88 | 1012.2 |
| 20260502203155 | 56 | 15 | 5.0 | 12.0 | 0.00 | 0.83 | 0.83 | 88 | 1012.2 |
| 20260502202123 | 56 | 12 | 4.0 | 12.0 | 0.00 | 0.83 | 0.83 | 88 | 1012.2 |
| 20260502201122 | 56 | 38 | 4.0 | 14.0 | 0.00 | 0.83 | 0.83 | 88 | 1012.2 |
| 20260502200121 | 56 | 25 | 8.0 | 14.0 | 0.00 | 0.83 | 0.83 | 88 | 1012.5 |
| 20260502195120 | 56 | 25 | 5.0 | 16.0 | 0.00 | 0.83 | 0.83 | 88 | 1012.5 |
| 20260502194119 | 56 | 21 | 5.0 | 16.0 | 0.00 | 0.83 | 0.83 | 88 | 1012.5 |
| 20260502193117 | 56 | 17 | 6.0 | 14.0 | 0.00 | 0.83 | 0.83 | 87 | 1012.5 |
| 20260502192116 | 57 | 48 | 4.0 | 14.0 | 0.00 | 0.83 | 0.83 | 87 | 1012.2 |
| 20260502191114 | 57 | 26 | 4.0 | 11.0 | 0.00 | 0.83 | 0.83 | 88 | 1012.5 |
| 20260502190114 | 57 | 29 | 5.0 | 11.0 | 0.00 | 0.83 | 0.83 | 88 | 1012.5 |
| 20260502185112 | 57 | 35 | 4.0 | 11.0 | 0.00 | 0.83 | 0.83 | 89 | 1012.5 |